Regional Weather Roundup
Issued by NWS

Home | Current Version | Previous Version | Text Only | Print | Product List | Glossary On
Versions: 1 2 3 4 5 6 7 8 9 10 11 12 13 14 15 16 17 18 19 20 21 22 23 24 25 26 27 28 29 30 31 32 33 34 35 36 37 38 39 40 41 42 43 44 45 46 47 48 49 50
000
ASCA44 KEWX 022120
RWRMX

LATIN AMERICA AND CARIBBEAN REGIONAL WEATHER ROUNDUP
NATIONAL WEATHER SERVICE AUSTIN/SAN ANTONIO TX
400 PM CDT MON MAY 02 2016

NOTE: "FAIR" INDICATED FEW OR NO CLOUDS BELOW 12,000 FEET WITH NO
SIGNIFICANT WEATHER AND/OR OBSTRUCTIONS TO VISIBILITY.

BAJA CALIFORNIA

CITY           SKY/WX    TMP DP  RH WIND       PRES   REMARKS
LORETO         SUNNY     79  63  57 NE14      29.88F
LA PAZ         SUNNY     81  54  39 NW8       29.90F
MEXICALI       MOSUNNY   88  36  15 NW7       29.93F
S.J. DEL CABO  SUNNY     82  59  44 E16       29.89F
TIJUANA        SUNNY     68  52  56 W18       30.01S

NORTHWESTERN MEXICO

CITY           SKY/WX    TMP DP  RH WIND       PRES   REMARKS
CULIACAN       SUNNY     91  63  38 SW9       29.83F HX  92
DURANGO        SUNNY     86  54  32 S8        30.07F
GUAYMAS        SUNNY     81  48  32 S12       29.85F
HERMOSILLO     SUNNY     91  36  14 S5        29.92F
CD. JUAREZ     SUNNY     66  36  32 SE15      30.10F
LOS MOCHIS     SUNNY     86  46  25 NW17      29.88S
OBREGON        SUNNY     90  28  11 NW6       29.84F

NORTHEASTERN MEXICO

CITY           SKY/WX    TMP DP  RH WIND       PRES   REMARKS
CHIHUAHUA      SUNNY     72  34  25 E9        30.11F
MATAMOROS      CLOUDY    75  63  64 N20       29.94S
MONCLOVA         N/A    N/A N/A N/A MISG        N/A
MONTERREY      CLOUDY    68  52  56 NW13G25   30.03F
NUEVO LAREDO   CLOUDY    68  52  56 N14       30.08S
PIEDRAS NEGRAS   N/A    N/A N/A N/A MISG        N/A
REYNOSA        CLOUDY    75  55  50 N9G23     29.97S
SALTILLO       FOG       59  57  94 N7        30.18F VSB 1
TORREON        SUNNY     86  39  19 CALM      29.99F
CD. VICTORIA   CLOUDY    75  61  60 NW17      29.94F

WESTERN MEXICO

CITY           SKY/WX    TMP DP  RH WIND       PRES   REMARKS
AGUASCALIENTES SUNNY     90  12   5 S15       30.10F
COLIMA         PTSUNNY   86  63  45 W14       29.90F
DEL BAJIO      MOSUNNY   93  41  16 S8        30.13F
GUADALAJARA    SUNNY     93  19   7 S5        30.01F
MANZANILLO     MOSUNNY   77  70  78 W23       29.75F
MAZATLAN       SUNNY     82  64  54 W14       29.83F
P. VALLARTA    MOSUNNY   81  68  65 S14       29.82F
URUAPAN        PTSUNNY   84  43  23 SW12      30.05F
ZACATECAS      MOSUNNY   82  23  11 CALM      30.15F

CENTRAL MEXICO

CITY           SKY/WX    TMP DP  RH WIND       PRES   REMARKS
CUERNAVACA     PTSUNNY   97  25   7 CALM      29.92F HX  90
MEXICO CITY    MOSUNNY   86  27  11 SE8       30.16F
MORELIA        MOSUNNY   93  23   8 SE8       30.07F
POZA RICA      PTSUNNY   91  75  59 NE9       29.84F HX 102
PUEBLA         MOSUNNY   84  32  15 S9        30.19F
QUERETARO      MOSUNNY   90  23   9 W10       30.13F
S. LUIS POTOSI SUNNY     88  39  18 E12       30.09F
TAMPICO        PTSUNNY   86  73  66 NE12      29.84F HX  93
TOLUCA         PTSUNNY   84  37  18 SE13      30.28F

SOUTHERN MEXICO

CITY           SKY/WX    TMP DP  RH WIND       PRES   REMARKS
ACAPULCO       SUNNY     81  72  74 SW10      29.82F
B. DE HUATULCO MOSUNNY   86  73  66 S13       29.85F HX  93
OAXACA         PTSUNNY   88  50  27 NE17      30.01F
P. ESCONDIDO   SUNNY     81  72  74 W16       29.90F
VERACRUZ       SUNNY     90  75  62 NE23      29.77F HX 100
ZIHUATANEJO    MOSUNNY   84  68  58 SW9       29.82F

YUCATAN PENINSULA

CITY           SKY/WX    TMP DP  RH WIND       PRES   REMARKS
CAMPECHE       MOSUNNY  100  66  32 SE12      29.71F HX 104
CANCUN         MOSUNNY   86  75  70 E14       29.88F HX  95
CHETUMAL       MOSUNNY   88  79  74 SE15      29.82F HX 102
CD. DEL CARMEN PTSUNNY   95  75  52 N10       29.73F HX 107
COZUMEL        PTSUNNY   84  75  74 SE14      29.87F HX  92
MERIDA         MOSUNNY  102  64  29 SE10      29.76F HX 105
MINATITLAN     SUNNY     86  77  74 N7        29.73R HX  97
TAPACHULA      MOSUNNY   88  77  70 W14       29.75F HX 100
TUX. GUTIERREZ SUNNY    102  55  21 W15       29.72F HX 101
VILLAHERMOSA   MOSUNNY   97  79  56 NW8       29.75F SMOKE   HX 115

CENTRAL AMERICA

CITY           SKY/WX    TMP DP  RH WIND       PRES   REMARKS
BELIZE CITY    PTSUNNY   88  79  74 E12       29.83F HX 102
MANAGUA        PTCLDY    97  70  41 E5        29.71F HX 103

CARIBBEAN

CITY           SKY/WX    TMP DP  RH WIND       PRES   REMARKS
KINGSTON       MOSUNNY   88  75  66 SE22      29.86F HX  97
NASSAU         PTSUNNY   86  75  70 E10       30.01F HX  95
SAN JUAN       MOSUNNY   82  73  74 E14       29.98F
SANTO DOMINGO  MOSUNNY   82  73  74 SE9       29.92S
ST. CROIX      CLOUDY    77  70  78 E15       30.01
ST. KITTS      MOSUNNY   81  73  78 E9        30.00S
ST. MAARTEN    PTSUNNY   77  73  88 E8        30.00
ST. THOMAS     MOSUNNY   84  73  70 NE10      29.99  HX  91

$$




USA.gov is the U.S. government's official web portal to all federal, state and local government web resources and services.